Regional Weather Roundup
Issued by NWS

Home | Current Version | Previous Version | Text Only | Print | Product List | Glossary On
Versions: 1 2 3 4 5 6 7 8 9 10 11 12 13 14 15 16 17 18 19 20 21 22 23 24 25 26 27 28
000
ASUS45 KSLC 281310
RWRUT

UTAH REGIONAL WEATHER ROUNDUP
NATIONAL WEATHER SERVICE SALT LAKE CITY UT
700 AM MDT WED JUN 28 2017

UTZ001>011-023>025-281400-

NORTHERN UTAH

CITY           SKY/WX    TMP DP  RH WIND       PRES   REMARKS
BRIGHAM CITY   CLEAR     64  37  37 SW6       29.89F
DUGWAY         CLEAR     56  29  36 CALM      29.89
HILL AFB       CLEAR     59  38  45 E10       29.92R
LOGAN          CLEAR     52  44  74 SW9       29.95R
OGDEN          CLEAR     61  40  45 NW7       29.90R
SALT LAKE CITY CLEAR     70  40  33 SE10      29.87S
TOOELE VALLEY  CLEAR     59  37  44 S7        29.89S
WENDOVER         N/A     62  35  36 NE5       29.89R
HEBER CITY     CLEAR     46  37  71 CALM      30.00R
WEST JORDAN    CLEAR     62  43  51 S6        29.90F

$$

UTZ011>015-024>027-281400-

CENTRAL/NORTHEAST UTAH

CITY           SKY/WX    TMP DP  RH WIND       PRES   REMARKS
PROVO AIRPORT  CLEAR     58  41  53 S6        29.92R
MOAB/CANYONLAN SUNNY     65  25  22 CALM      29.85R
DELTA          CLEAR     57  32  38 E6        29.92R
PRICE          CLEAR     63  27  25 NE7       29.96S
ROOSEVELT      CLOUDY    52  36  54 CALM      29.98R
VERNAL         CLOUDY    60  31  33 NW6       29.95S

$$

UTZ013>016-019>022-027-281400-

SOUTHERN UTAH

CITY           SKY/WX    TMP DP  RH WIND       PRES   REMARKS
BRYCE CANYON   CLEAR     40  24  53 NW3       30.14R
CEDAR CITY     CLEAR     54  28  36 VRB3      29.97R
MILFORD        CLEAR     55  22  27 S5        29.92R
ST GEORGE      SUNNY     72  18  13 E3        29.81R
HANKSVILLE     CLEAR     63  21  20 CALM      29.89R
BLANDING       CLEAR     60  19  21 NE7       30.07R

$$

REGIONAL REPORTS     COLORADO/ARIZONA

CITY           SKY/WX    TMP DP  RH WIND       PRES   REMARKS
CRAIG, CO      CLOUDY    48  39  71 CALM      30.03S
GRAND JUNCTION SUNNY     68  29  23 E12       29.89R
RIFLE, CO      SUNNY     60  33  36 NE3       29.97R
MONTROSE, CO   CLOUDY    60  23  24 SE10      30.00R
CORTEZ, CO     CLOUDY    50  28  42 NE5       30.04R
COLORADO CITY    N/A     50  23  34 SE5       29.99R
PAGE, AZ       CLEAR     72  25  17 CALM      29.90R
GRAND CANYON   PTCLDY    41  16  36 CALM      30.14R
KINGMAN, AZ    CLEAR     72  21  14 SE9       29.87R
FLAGSTAFF, AZ  CLEAR     42  15  33 CALM      30.18R

$$

REGIONAL REPORTS    NEVADA/IDAHO/WYOMING

CITY           SKY/WX    TMP DP  RH WIND       PRES   REMARKS
LAS VEGAS, NV  CLEAR     82  23  11 SW5       29.74R
ELY, NY        PTCLDY    41  15  35 S8        30.05R
ELKO, NV       CLEAR     52  31  44 CALM      29.97R
POCATELLO, ID  PTCLDY    57  48  72 N3        29.91R
BURLEY, ID     CLEAR     58  47  66 VRB3      29.86F
FORT BRIDGER,    N/A     55  32  41 SW7       30.08S
EVANSTON, WY   CLOUDY    50  31  48 S7        30.06S
ROCK SPRINGS,  SUNNY     54  34  46 SE3       30.04R

$$




USA.gov is the U.S. government's official web portal to all federal, state and local government web resources and services.